Location: Vanderbilt Beach
(26.2700°N, 81.7900°W)
Time: 08:14:51
(UTC-04:00)

N. Korean satellite - Pass Details

Date: 19 June 2021
Orbit: 451 x 497 km, 97.2° (Epoch: 26 July)

Event Time Altitude Azimuth Distance (km) Brightness Sun altitude
Rises 05:44:11 0° 37° (NE) 2,555 11.8 -10.7°
Reaches altitude 10° 05:47:10 10° 65° (ENE) 1,680 10.9 -10.2°
Maximum altitude 05:49:00 13° 96° (E) 1,480 9.8 -9.8°
Drops below altitude 10° 05:50:50 10° 126° (SE) 1,684 9.6 -9.5°
Sets 05:53:48 0° 154° (SSE) 2,568 10.2 -8.9°
